Location: Cz?stochówka
(50.8142°N, 19.0915°E)
Time: 01:59:31
(UTC+00:00)

Daily predictions for brighter satellites

Satellite Brightness Start Highest point End
(mag) Time Altitude Azimuth Time Altitude Azimuth Time Altitude Azimuth
Cosmos 2227 Rocket 4.5 03:18:14 12° N 03:18:14 12° N 03:19:05 10° N
Cosmos 1844 Rocket 3.8 03:23:00 33° N 03:23:00 33° N 03:26:11 10° NNE
ATLAS 2AS CENTAUR R/B 3.7 03:19:13 33° N 03:20:52 37° NNE 03:27:04 10° E
Meteor 1-11 Rocket 3.8 03:31:06 69° SSE 03:31:49 81° E 03:37:37 10° NNE
ARIANE 6 FM1 Upper Stage 4.2 03:36:41 32° ESE 03:36:41 32° ESE 03:38:57 10° SE
CZ-4C R/B 3.7 03:35:32 25° N 03:35:32 25° N 03:40:58 10° NE
Cosmos 909 Rocket 4.1 03:38:03 66° SW 03:38:03 66° SW 03:44:55 10° SSE
Cosmos 1709 Rocket 3.8 03:34:07 10° S 03:40:13 87° E 03:46:23 10° N
Cosmos 2263 Rocket 4.2 03:44:56 15° N 03:44:56 15° N 03:46:38 10° N
Cosmos 2082 Rocket 3.8 03:41:39 18° N 03:44:52 29° NE 03:49:47 10° ESE
Cosmos 1302 Rocket 4.1 03:46:33 62° S 03:46:33 62° S 03:50:56 10° SSE
Lacrosse 5 rocket 2.9 03:47:44 26° NE 03:47:44 26° NE 03:49:36 10° NE
GEOS 3 Rocket 3.5 03:42:42 10° SE 03:47:57 90° E 03:48:25 76° NW
Cosmos 1745 Rocket 3.9 03:49:18 62° NW 03:49:18 62° NW 03:54:56 10° N
Gblst 52 Del rocket 3.9 03:53:18 74° WNW 03:53:46 83° N 03:59:19 10° E
NOAA 12 4.3 03:51:31 10° NNE 03:56:45 70° ESE 04:01:57 10° S
Cosmos 1833 Rocket 2.5 03:59:26 62° NW 04:00:19 75° WSW 04:05:55 10° SSE
FengYun 1-2 T 4.1 03:58:21 10° NNE 04:03:56 70° WNW 04:06:52 28° SSW
COSMO-SKYMED 1 2.4 03:59:57 10° SSE 04:04:03 81° ENE 04:04:14 78° NNE
Helios 1A Rocket 3.4 04:02:42 10° SE 04:05:55 44° ENE 04:06:10 43° NE
Cosmos 1992 Rocket 3.8 04:16:46 42° NW 04:18:32 73° WSW 04:23:42 10° SSE
Cosmos 1408 Rocket 4.3 04:14:57 10° S 04:19:10 53° E 04:23:23 10° NNE
SeaSat 1 4.3 04:18:04 10° NE 04:22:27 32° ESE 04:26:48 10° S
Cosmos 2181 Rocket 3.9 04:16:35 10° NNW 04:22:57 77° W 04:29:21 10° S
Cosmos 1943 Rocket 3.5 04:19:32 10° S 04:24:37 40° ESE 04:29:44 10° NE
Sich 1 2.9 04:21:06 10° S 04:25:19 84° E 04:29:32 10° NNE
Meteor 1-23 Rocket 4.4 04:25:56 35° NW 04:27:41 46° W 04:32:58 10° SSW
CZ-4 R/B 3.7 04:23:25 10° NNE 04:28:11 77° WNW 04:33:01 10° SSW
USA 307 2.9 04:30:52 48° NNW 04:31:23 52° N 04:35:17 10° E
Cosmos 2184 Rocket 4.2 04:27:24 10° S 04:33:35 74° E 04:39:45 10° NNE
IGS 5A 3.8 04:30:26 10° NNE 04:34:23 61° E 04:38:19 10° S
Cosmos 44 4.0 04:31:47 23° NNW 04:35:00 58° NE 04:40:18 10° ESE
Meteor 1-21 4.5 04:34:04 26° NW 04:36:46 43° W 04:42:04 10° SSW
Cosmos 921 Rocket 3.7 04:34:57 10° S 04:39:09 54° ESE 04:43:19 10° NNE
Meteor 2-10 Rocket 3.7 04:36:41 10° S 04:41:44 73° E 04:46:59 10° NNE
ATLAS CENTAUR R/B 1.4 04:44:41 32° N 04:45:37 45° NE 04:48:32 10° ESE
Cosmos 614 Rocket 4.4 04:47:34 30° W 04:49:02 36° NW 04:53:41 10° NNE
Cosmos 1484 Rocket 2.4 04:45:44 10° NNE 04:49:08 80° ESE 04:52:32 10° SSW
Cosmos 2084 3.2 04:50:03 17° SW 04:53:17 82° NW 04:57:27 10° NE
CBERS-1 4.4 04:48:28 10° NNE 04:53:34 67° ESE 04:58:36 10° S
Okean 2 3.6 04:53:39 32° NW 04:54:40 39° W 04:58:15 10° SSW
IRS-1D 3.9 04:50:56 10° N 04:55:56 43° WNW 05:00:55 10° SW
USA 234 4.4 04:53:16 10° ENE 04:59:31 44° SE 05:05:43 10° SSW
Cosmos 2074 Rocket 3.9 04:55:11 10° SSW 05:01:29 72° WNW 05:07:48 10° N
MOS 1 Rocket 4.2 04:57:23 10° NNE 05:01:56 50° E 05:06:13 10° S
Cosmos 1844 Rocket 4.1 05:04:40 17° NW 05:05:38 18° NNW 05:09:28 10° N
Cosmos 1707 Rocket 4.0 05:02:13 10° N 05:06:31 63° ENE 05:10:47 10° SSE
Cosmos 2228 Rocket 3.9 05:02:58 10° N 05:07:16 50° ENE 05:11:31 10° SSE
Cosmos 540 Rocket 4.2 05:02:21 10° NNW 05:07:19 51° ENE 05:12:17 10° SE
Thor Agena Rocket 4.1 05:06:15 10° NNE 05:11:18 62° ESE 05:16:23 10° S
ATLAS 2AS CENTAUR R/B 2.7 05:06:38 15° NW 05:12:29 88° SW 05:19:15 10° SE
Nadezhda 3 Rocket 4.0 05:07:18 10° NNW 05:13:26 62° W 05:19:35 10° S
ARIANE 6 FM1 Upper Stage 4.1 05:12:44 18° WSW 05:13:37 20° WSW 05:16:31 10° SSW
Cosmos 1743 Rocket 3.5 05:12:30 10° SSW 05:16:55 71° WNW 05:21:22 10° N
Cosmos 1633 Rocket 4.0 05:15:07 10° S 05:19:18 50° E 05:23:30 10° NNE
COSMOS 2406 3.7 05:14:14 10° NNW 05:19:56 62° NE 05:25:37 10° SE
Cosmos 1328 4.4 05:18:52 10° N 05:22:23 51° ENE 05:25:53 10° SSE
Lacrosse 5 rocket 2.2 05:21:15 18° NW 05:23:23 31° N 05:26:47 10° ENE
CZ-4C R/B 3.8 05:20:28 11° NW 05:25:35 33° NNE 05:32:20 10° E
BREEZE M DEB (TANK) 4.0 05:23:21 15° W 05:25:57 36° SSW 05:33:37 10° SE
Cosmos 1666 Rocket 3.9 05:22:01 10° S 05:26:20 70° E 05:30:42 10° NNE
NOSS 8 (E) 4.0 05:25:13 18° NW 05:27:18 87° SW 05:30:37 10° SE
SJ-12 4.2 05:24:36 10° NNE 05:28:25 67° ESE 05:32:13 10° S
CZ-2D R/B 2.9 05:25:33 10° NNE 05:28:41 73° ESE 05:31:47 10° S
Landsat 7 3.7 05:24:05 10° NNE 05:28:47 88° WNW 05:33:26 10° SSW
Cosmos 2082 Rocket 2.2 05:23:48 10° NNW 05:29:27 69° WSW 05:35:05 10° SSE
Cosmos 1953 3.8 05:28:36 10° SSE 05:31:57 36° E 05:35:22 10° NNE
SMAP 3.0 05:30:13 10° N 05:34:52 72° WNW 05:39:30 10° SSW
Cosmos 2278 Rocket 2.1 05:29:18 10° SW 05:34:57 75° WNW 05:40:39 10° NNE
Cosmos 2154 Rocket 4.2 05:30:00 10° SSW 05:36:05 49° WNW 05:42:11 10° N
Helios 1A Rocket 4.2 05:36:37 10° SW 05:38:36 15° W 05:39:34 13° WNW
COSMO-SKYMED 1 4.3 05:38:13 10° WSW 05:39:54 12° W 05:40:33 12° WNW
Cosmos 2366 rocket 4.4 05:35:11 10° S 05:41:19 70° E 05:47:33 10° NNE
Cosmos 1805 Rocket 4.4 05:37:32 10° SW 05:41:25 29° WNW 05:45:18 10° N
Cosmos 1833 Rocket 4.4 05:41:08 11° WNW 05:43:14 14° W 05:45:53 10° SW
USA 32 4.2 05:38:11 10° SSW 05:43:15 49° WNW 05:48:23 10° N
Lacrosse 4 Rocket 2.6 05:40:37 10° S 05:44:23 45° ESE 05:48:09 10° NE
Gblst 52 Del rocket 4.5 05:40:14 11° WNW 05:45:22 59° SSW 05:50:56 10° SE
COBE Rocket 4.1 05:43:25 10° SSE 05:48:20 79° ENE 05:53:24 10° N
Cosmos 1758 4.0 05:49:20 10° SW 05:52:38 29° WNW 05:55:56 10° N
Cosmos 2297 Rocket 4.4 05:50:45 10° N 05:53:15 13° NNE 05:55:46 10° NE
Cosmos 2341 Rocket 4.1 05:47:16 10° S 05:53:41 90° E 06:00:07 10° N
Cosmos 1269 Rocket 4.1 05:49:31 10° SW 05:54:44 58° WNW 05:59:58 10° NNE
CENTAUR R/B 3.8 05:50:19 10° S 05:55:31 44° ESE 06:02:00 10° NE
SAR-Lupe-4 3.6 05:54:16 10° NNE 05:57:52 89° WNW 06:01:28 10° SSW
SKYMED 3 4.3 05:54:01 10° S 05:57:54 76° WSW 06:01:49 10° NNW
Timation 2 Rocket 4.1 05:52:20 10° SW 05:58:52 61° NW 06:05:09 10° NNE
Meteor 1-22 Rocket 4.4 05:53:12 10° SSW 05:59:17 82° WNW 06:05:18 10° N
USA 307 2.6 05:55:48 10° WNW 05:59:52 87° NNE 06:03:36 10° ESE
SeaSat 1 2.6 05:55:15 10° NNE 05:59:59 50° NW 06:04:42 10° SW
Cosmos 1703 Rocket 3.7 05:58:03 10° N 06:02:22 79° ENE 06:06:41 10° SSE
BREEZE-M DEB (TANK) 4.2 06:01:10 10° WSW 06:07:27 59° SSE 06:13:16 10° E
